Location: Ammerl�gen
(47.2167°N, 9.6000°E)
Time: 15:09:49
(UTC+00:00)

Cosmos 2263 Rocket - Pass Details

Date: 21 April 2021
Orbit: 824 x 848 km, 71.0° (Epoch: 07 May)

Event Time Altitude Azimuth Distance (km) Brightness Sun altitude
Exits shadow 22:33:29 55° 286° (WNW) 986 2.6 -29.7°
Maximum altitude 22:33:50 56° 302° (WNW) 975 2.6 -29.7°
Drops below altitude 10° 22:39:20 10° 21° (NNE) 2,439 5.3 -29.9°
Sets 22:41:50 0° 25° (NNE) 3,378 6.1 -30.0°
